Regional Weather Roundup
Issued by NWS

Home | Current Version | Previous Version | Text Only | Print | Product List | Glossary Off
Versions: 1 2 3 4 5 6 7 8 9 10 11 12 13 14 15 16 17 18 19 20 21 22 23 24 25 26 27 28 29 30 31 32 33 34 35 36 37 38 39 40 41 42 43 44 45 46 47 48 49 50

000
ASUS43 KLSX 210059
RWRMO

WEATHER SUMMARY FOR MISSOURI
NATIONAL WEATHER SERVICE SPRINGFIELD MO
800 PM CDT THU JUL 20 2017

NOTE: "FAIR" INDICATES FEW OR NO CLOUDS BELOW 12,000 FEET WITH NO
       SIGNIFICANT WEATHER AND/OR OBSTRUCTIONS TO VISIBILITY.
       CURRENT SKY AND/OR WEATHER CONDITIONS ARE NOT AVAILABLE FOR
       CHILLICOTHE AND FARMINGTON.

MOZ001>031-035>038-043-044-053-054-210200-
...NORTHERN AND WESTERN MISSOURI...

CITY           SKY/WX    TMP DP  RH WIND       PRES   REMARKS
KANSAS CTY INT PTCLDY    90  78  68 S8        29.95S HX 104
KANSAS C DTWN  CLEAR     93  75  55 S9        29.93S HX 104
LEE`S SUMMIT   CLEAR     92  76  59 S12       29.97S HX 104
ST JOSEPH      CLEAR     89  79  72 S8        29.92F HX 104
CHILLICOTHE      N/A     90  81  74 S6        29.94F HX 109
KIRKSVILLE     CLEAR     89  79  72 SW7       29.96S HX 104

$$
MOZ066>068-077>081-088>096-101>105-210200-
...SOUTHWEST MISSOURI...

CITY           SKY/WX    TMP DP  RH WIND       PRES   REMARKS
SPRINGFIELD    CLEAR     90  73  57 SW5       30.02F HX  98
JOPLIN         CLEAR     91  73  55 SW8       30.01S HX  99
BRANSON        PTCLDY    90  72  55 CALM      30.05F HX  96

$$
MOZ032>034-039>042-045>050-055>058-069>072-210200-
...CENTRAL MISSOURI...

CITY           SKY/WX    TMP DP  RH WIND       PRES   REMARKS
COLUMBIA       CLEAR     90  75  61 S5        29.98S HX 100
JEFFERSON CITY CLEAR     93  76  57 CALM      29.95F HX 105
ROLLA          CLEAR     87  75  67 S5        29.99F HX  96
WARRENSBURG    CLEAR     90  73  58 S5        29.96S HX  98
OSAGE BEACH    CLEAR     90  74  59 CALM      29.99S HX  99

$$
MOZ051-052-059>065-210200-
...EAST CENTRAL MISSOURI...

CITY           SKY/WX    TMP DP  RH WIND       PRES   REMARKS
ST LOUIS INTL  PTCLDY    97  68  38 W9        29.96S HX 102
SPIRIT OF STL  PTCLDY    89  80  74 CALM      29.95S HX 106
ST CHARLES     CLEAR     93  74  53 MISG      29.94S HX 103

$$
MOZ072>076-082>087-097>100-106>115-210200-
...SOUTH CENTRAL AND SOUTHEAST MISSOURI...

CITY           SKY/WX    TMP DP  RH WIND       PRES   REMARKS
CAPE GIRARDEAU CLEAR     86  75  69 S5        29.99S HX  95
FARMINGTON     CLEAR     88  75  65 S7        30.01F HX  97
POPLAR BLUFF   PTCLDY    88  79  74 S6        29.98F HX 103
WEST PLAINS    CLEAR     88  71  57 S5        30.05S HX  94

$$



USA.gov is the U.S. government's official web portal to all federal, state and local government web resources and services.